Wind_Speed
43 41 41 41 41 42 42 41 41 41 41 41 42 43 43 43 43 43 43 44 44 44 45 45 46 47 47 48 48 49 49 48 47 47 47 46 47 46 46 46 47 47 47
43 43 43 43 43 43 43 42 42 42 42 42 43 44 44 45 45 45 45 46 47 46 46 46 47 48 48 48 49 49 49 49 50 50 50 50 49 49 49 49 49 49 50
43 44 44 45 44 44 44 43 43 43 44 44 44 45 45 45 45 46 47 47 48 48 48 48 49 49 49 50 50 50 50 50 52 53 53 53 52 51 51 51 52 52 52
43 44 44 45 45 45 45 45 44 45 46 46 46 45 45 46 47 47 47 48 49 49 50 50 51 51 51 51 51 51 51 52 53 53 54 54 54 53 52 53 54 55 54
43 43 44 45 45 45 45 45 45 45 45 45 45 45 46 47 48 49 48 49 49 50 51 51 52 52 52 51 52 53 53 54 54 54 54 55 55 55 55 55 56 56 56
43 43 43 44 44 44 45 45 45 45 45 45 45 46 46 47 48 49 50 50 51 51 52 52 52 52 52 52 53 53 54 53 53 54 55 55 55 56 56 56 56 56 56
44 44 45 45 45 45 46 46 47 47 47 47 46 47 48 48 48 49 50 51 50 51 51 52 53 53 54 54 53 53 53 53 53 53 54 55 55 56 57 56 56 55 55
45 46 46 46 46 46 46 47 48 48 48 48 48 48 49 49 49 49 50 50 50 51 51 51 52 52 52 52 53 53 53 54 54 54 54 55 55 55 55 55 55 55 55
45 45 46 47 47 47 48 48 48 49 49 49 50 50 50 50 50 50 51 51 51 51 51 52 52 51 51 52 54 54 54 54 54 54 55 55 55 55 55 55 54 54 54
44 45 46 48 49 49 49 49 50 50 50 50 51 51 51 51 51 51 52 52 52 51 51 51 51 51 52 53 54 54 54 54 54 54 53 53 54 54 54 54 54 54 54
44 45 45 47 49 49 50 50 51 51 51 51 52 52 51 51 51 52 52 52 52 51 51 51 52 52 52 52 53 53 53 53 54 53 53 53 53 53 53 53 53 54 54
41 42 44 45 46 47 49 50 51 51 51 51 52 52 51 51 51 51 51 51 52 53 53 53 52 53 53 52 52 52 53 53 52 52 52 52 52 52 52 53 53 53 53
40 40 42 43 45 46 47 48 49 49 50 50 51 51 51 50 50 50 50 51 52 53 53 54 54 54 53 53 52 51 52 52 51 51 51 50 51 52 51 51 51 51 51
40 40 41 42 43 44 45 45 46 46 47 48 50 50 50 50 50 51 51 51 52 52 52 53 53 53 53 52 51 51 50 50 50 49 50 50 50 50 50 50 50 50 50
39 39 40 41 42 42 42 43 44 45 45 46 46 46 47 49 49 50 50 50 50 50 50 51 51 51 51 50 50 50 49 49 48 48 49 49 49 49 49 49 49 49 48
38 38 39 39 39 40 40 41 42 43 43 43 43 44 45 46 47 47 47 47 48 48 48 48 48 49 49 49 49 48 48 48 48 48 48 47 47 48 48 48 47 47 46
36 36 36 36 37 38 39 40 40 40 41 41 42 43 44 45 45 45 46 47 47 47 47 47 47 48 48 48 47 47 46 46 46 47 47 47 47 47 47 46 45 44 43
35 36 36 36 37 37 37 38 38 38 39 40 41 42 42 42 43 44 45 45 46 46 46 46 46 46 46 45 45 44 45 45 46 46 46 46 45 45 45 45 44 43 43
35 35 36 36 36 36 36 37 37 37 38 38 39 40 41 42 43 43 44 44 44 44 45 45 44 44 44 44 43 44 44 44 45 45 44 43 43 43 42 42 42 42 42
36 36 36 36 36 36 36 37 37 37 38 38 39 39 40 41 41 42 42 42 42 42 43 43 43 43 43 43 43 43 43 43 43 42 42 42 41 41 40 40 41 41 41
35 35 35 35 35 36 36 36 37 38 38 38 39 39 40 40 40 40 40 40 40 40 40 40 40 41 42 42 42 42 41 41 41 41 40 40 40 39 40 40 41 41 41
35 34 35 35 35 35 36 36 37 37 38 38 38 39 39 39 38 38 38 37 37 38 38 39 39 39 40 40 40 40 40 40 40 40 39 39 39 38 38 39 39 39 38
34 35 35 35 35 36 36 37 37 37 37 37 37 37 37 37 36 35 35 35 36 36 37 37 38 38 38 38 39 39 39 38 38 38 38 38 38 38 37 37 36 36 35
35 35 36 36 36 36 36 36 36 36 36 36 36 36 35 35 35 35 35 34 35 35 36 36 36 36 37 37 37 37 37 37 37 37 37 36 36 35 35 34 34 33 32
35 35 36 36 36 36 35 35 35 35 34 35 34 34 34 34 34 34 34 34 35 34 34 34 35 35 35 35 35 35 36 36 35 35 34 34 33 32 32 31 30 29 29
33 34 34 34 34 34 34 33 33 33 33 33 33 33 33 33 33 33 33 33 33 33 33 33 33 33 32 32 32 32 32 32 31 31 30 29 28 28 28 27 26 26 25
Wind_Direction
242 243 242 243 244 245 245 245 246 247 248 250 251 253 255 256 257 258 260 261 262 264 265 266 267 269 270 271 271 271 270 269 270 270 270 272 274 274 275 276 276 276 277
242 242 243 245 247 247 246 247 248 249 251 252 254 255 257 257 258 259 259 261 262 263 265 266 267 269 270 271 271 271 270 270 271 270 271 273 274 274 274 276 276 276 277
243 244 244 246 247 247 247 248 249 251 252 254 255 257 258 258 259 261 262 262 262 264 265 267 268 270 270 270 270 270 270 271 272 272 272 274 275 274 275 276 276 277 278
244 245 246 247 248 248 248 249 251 252 253 255 256 258 259 259 260 262 263 265 266 266 267 267 268 269 269 270 270 270 270 271 273 273 274 275 275 275 276 276 277 277 277
246 246 247 248 248 249 249 251 253 254 255 256 257 259 260 261 261 263 265 266 266 267 267 268 269 269 270 270 270 271 271 273 273 274 275 275 275 275 276 277 278 278 277
248 248 247 248 248 250 251 252 253 255 256 257 259 260 261 262 263 265 266 267 268 268 268 268 269 269 270 271 271 272 273 273 273 274 275 276 275 276 277 278 278 278 277
249 249 249 249 250 251 252 254 255 256 257 259 260 261 263 264 265 266 268 269 270 270 271 271 271 270 271 271 271 272 272 273 274 275 275 275 276 276 277 277 277 277 277
249 250 251 250 250 251 253 254 256 257 259 260 262 264 265 267 268 268 268 269 270 270 271 271 271 271 272 272 272 272 273 273 273 274 275 275 275 276 276 276 276 276 277
251 251 251 252 252 253 254 256 258 259 261 262 264 266 267 268 269 269 269 269 270 270 270 271 271 271 272 272 273 273 273 273 274 275 275 276 276 277 277 277 277 277 277
252 252 252 253 254 255 256 258 259 261 262 263 265 266 268 268 269 269 269 269 269 270 271 271 272 272 273 273 274 273 273 273 273 275 276 276 276 277 278 278 277 278 279
253 253 254 254 255 257 258 259 260 262 263 265 265 266 267 268 270 270 270 270 269 269 270 271 272 273 273 273 273 274 274 274 274 275 276 276 276 276 276 277 277 278 279
255 255 256 256 258 259 260 261 262 264 265 265 266 266 267 268 269 270 270 270 270 269 270 271 272 273 273 273 274 274 275 275 274 275 276 275 274 275 276 277 277 278 278
255 256 257 258 260 261 262 263 264 265 265 266 266 267 268 268 269 270 270 271 271 271 271 272 272 273 273 274 274 275 275 275 275 274 274 275 275 275 276 277 277 277 278
256 257 258 259 261 261 262 263 264 265 265 266 266 267 267 267 269 270 271 272 273 273 273 273 273 273 274 274 274 275 275 274 274 274 274 274 275 276 277 278 277 277 278
256 258 259 261 262 263 264 265 265 265 265 266 266 266 266 267 269 270 271 272 273 273 273 273 274 274 274 274 274 274 274 274 275 275 276 276 276 277 277 278 278 279 280
258 260 261 262 263 264 264 265 266 266 266 266 266 267 268 269 270 271 272 273 273 273 274 275 275 275 274 274 273 273 273 274 275 276 277 276 277 277 278 279 279 280 280
257 260 261 262 263 263 265 266 267 267 267 268 268 269 270 271 272 273 274 275 275 275 275 275 275 275 275 273 272 272 273 274 275 276 276 277 278 278 278 278 278 278 279
259 260 261 263 264 265 266 267 267 268 268 269 271 272 272 273 274 275 276 275 275 275 275 276 276 276 274 272 272 272 273 274 275 276 277 278 278 278 278 277 277 277 278
261 262 263 264 265 267 268 268 269 270 271 272 273 274 274 275 275 276 276 276 276 276 275 275 275 275 273 272 272 273 274 275 276 277 277 278 278 278 277 276 276 276 277
262 264 265 265 266 268 269 270 271 272 273 273 274 275 275 275 275 276 276 276 276 276 275 275 275 274 273 272 273 274 275 275 276 277 278 277 278 277 277 277 277 277 277
262 263 265 266 267 268 270 271 272 273 274 275 275 275 276 276 276 275 276 276 276 276 275 275 275 274 274 274 274 275 276 276 277 277 277 278 278 278 278 278 278 278 278
262 262 264 266 268 269 271 272 274 274 275 276 276 276 276 277 276 276 276 276 276 276 276 277 277 277 276 276 275 276 276 276 277 278 278 278 278 277 278 278 279 279 278
262 263 264 266 269 271 273 274 275 275 275 275 275 276 277 277 276 276 277 277 277 277 278 279 279 279 279 278 277 277 277 277 277 278 277 277 277 277 277 278 278 279 279
264 265 266 268 270 271 273 274 275 275 275 275 276 276 277 276 277 277 277 278 279 279 280 280 280 280 279 278 277 277 277 277 277 277 277 276 276 276 276 277 277 277 277
265 267 269 270 271 272 274 275 275 275 276 276 275 276 276 277 277 277 277 278 279 280 281 281 281 280 279 277 276 276 277 277 275 275 275 275 275 275 276 276 275 275 274
267 269 270 271 271 272 273 274 274 275 275 276 276 276 276 276 277 277 277 279 279 280 281 281 281 280 278 277 276 276 276 276 275 275 275 275 275 275 274 274 274 274 273
Height
5653 5657 5662 5666 5670 5673 5676 5680 5683 5686 5689 5691 5694 5696 5699 5700 5702 5704 5705 5707 5708 5709 5710 5711 5712 5713 5713 5713 5713 5714 5714 5715 5717 5719 5719 5719 5719 5719 5718 5718 5718 5718 5717
5644 5648 5652 5656 5660 5663 5666 5670 5673 5676 5679 5681 5683 5686 5688 5690 5691 5693 5694 5696 5697 5698 5699 5699 5700 5700 5700 5700 5701 5701 5702 5703 5704 5706 5707 5706 5706 5706 5705 5705 5705 5705 5704
5633 5637 5642 5646 5649 5653 5656 5659 5662 5665 5668 5671 5673 5675 5676 5678 5680 5681 5682 5684 5685 5686 5686 5687 5687 5687 5688 5688 5688 5688 5689 5690 5691 5692 5693 5693 5693 5692 5692 5692 5691 5691 5690
5622 5626 5631 5634 5638 5641 5644 5648 5651 5654 5657 5659 5662 5663 5665 5666 5668 5669 5670 5671 5672 5673 5673 5674 5674 5674 5674 5674 5675 5675 5675 5676 5676 5677 5678 5679 5679 5678 5677 5677 5677 5676 5675
5611 5615 5619 5622 5626 5630 5633 5636 5639 5642 5645 5647 5649 5651 5653 5654 5655 5656 5657 5658 5658 5659 5659 5660 5660 5660 5660 5660 5660 5661 5661 5661 5661 5662 5662 5663 5663 5662 5662 5661 5661 5660 5660
5599 5603 5607 5610 5614 5618 5621 5624 5627 5630 5633 5635 5637 5638 5640 5640 5641 5641 5642 5643 5644 5644 5645 5646 5646 5646 5646 5646 5645 5646 5646 5646 5646 5646 5647 5647 5647 5646 5645 5644 5643 5643 5644
5588 5591 5595 5599 5602 5606 5609 5612 5615 5617 5619 5622 5623 5625 5626 5627 5627 5628 5628 5628 5629 5630 5630 5630 5631 5631 5631 5630 5630 5630 5630 5629 5629 5630 5630 5630 5630 5630 5628 5628 5626 5625 5626
5577 5580 5583 5586 5590 5593 5596 5599 5602 5604 5606 5608 5610 5611 5612 5613 5613 5613 5614 5614 5615 5615 5616 5616 5615 5616 5615 5615 5615 5615 5615 5615 5614 5614 5614 5614 5613 5612 5610 5609 5608 5608 5608
5565 5568 5571 5574 5577 5580 5583 5586 5588 5590 5593 5594 5596 5597 5598 5598 5598 5599 5599 5600 5601 5601 5601 5601 5600 5600 5600 5599 5599 5599 5600 5599 5598 5597 5597 5597 5596 5595 5593 5592 5591 5591 5591
5553 5556 5559 5562 5565 5567 5570 5573 5575 5576 5579 5580 5581 5582 5583 5584 5584 5584 5584 5584 5586 5586 5586 5586 5585 5585 5584 5583 5583 5583 5583 5583 5582 5582 5582 5581 5580 5578 5577 5576 5575 5574 5574
5541 5544 5546 5549 5552 5554 5557 5559 5561 5562 5564 5565 5567 5568 5568 5569 5569 5569 5568 5569 5570 5571 5571 5571 5571 5570 5569 5568 5567 5566 5566 5566 5566 5566 5566 5565 5564 5563 5562 5561 5559 5558 5558
5529 5532 5534 5537 5539 5540 5543 5545 5546 5548 5549 5550 5551 5553 5553 5554 5554 5554 5554 5554 5554 5555 5556 5556 5555 5555 5554 5553 5552 5551 5550 5549 5549 5550 5550 5549 5548 5548 5547 5546 5545 5543 5542
5518 5520 5522 5524 5526 5528 5529 5531 5532 5533 5534 5535 5536 5537 5539 5539 5539 5540 5540 5539 5539 5539 5540 5540 5540 5539 5538 5537 5536 5535 5535 5534 5534 5534 5534 5534 5533 5532 5532 5530 5529 5528 5527
5507 5509 5511 5513 5514 5515 5516 5517 5518 5519 5520 5521 5522 5523 5524 5525 5525 5525 5525 5525 5524 5524 5524 5524 5524 5523 5522 5522 5521 5521 5520 5519 5519 5519 5519 5519 5518 5517 5516 5515 5514 5513 5513
5496 5498 5499 5501 5502 5503 5504 5505 5505 5506 5506 5507 5508 5508 5509 5510 5511 5510 5510 5510 5510 5509 5509 5509 5509 5508 5507 5507 5507 5506 5505 5505 5504 5504 5504 5504 5503 5502 5502 5500 5499 5498 5498
5485 5487 5488 5489 5490 5491 5492 5493 5493 5494 5494 5494 5494 5495 5495 5496 5496 5496 5496 5495 5495 5494 5494 5494 5493 5493 5492 5492 5492 5492 5491 5491 5490 5490 5490 5489 5488 5488 5487 5486 5485 5484 5483
5475 5476 5477 5478 5479 5480 5481 5482 5482 5482 5482 5482 5482 5482 5482 5482 5482 5481 5481 5480 5480 5479 5479 5479 5479 5478 5478 5478 5478 5478 5478 5477 5476 5476 5475 5475 5474 5473 5473 5472 5471 5470 5469
5464 5466 5467 5468 5469 5469 5469 5470 5470 5470 5471 5470 5470 5469 5468 5468 5468 5467 5467 5466 5466 5465 5465 5465 5465 5465 5464 5464 5464 5464 5464 5464 5463 5462 5461 5461 5460 5459 5459 5458 5457 5457 5456
5454 5455 5456 5457 5458 5458 5458 5459 5459 5459 5458 5458 5458 5457 5456 5455 5455 5454 5454 5453 5453 5453 5452 5452 5452 5452 5452 5452 5451 5451 5451 5450 5450 5449 5448 5447 5446 5446 5445 5445 5444 5443 5442
5444 5445 5446 5446 5447 5447 5448 5448 5448 5447 5447 5446 5446 5445 5444 5444 5443 5443 5442 5441 5440 5440 5440 5440 5440 5439 5439 5439 5439 5438 5438 5437 5436 5436 5435 5435 5434 5433 5432 5432 5431 5430 5430
5434 5434 5435 5436 5436 5437 5437 5437 5437 5436 5436 5435 5435 5434 5433 5432 5432 5431 5430 5429 5429 5428 5428 5428 5427 5427 5427 5426 5426 5426 5425 5425 5424 5423 5423 5422 5421 5420 5420 5419 5418 5417 5417
5423 5424 5425 5425 5426 5426 5426 5426 5425 5425 5424 5424 5423 5422 5421 5421 5420 5420 5419 5418 5418 5417 5416 5416 5416 5415 5414 5414 5414 5413 5413 5412 5412 5411 5410 5410 5409 5408 5408 5407 5406 5405 5404
5413 5414 5415 5415 5415 5415 5415 5415 5414 5414 5413 5413 5412 5411 5410 5410 5409 5409 5408 5407 5407 5406 5405 5404 5404 5403 5402 5402 5401 5401 5401 5400 5399 5399 5398 5398 5397 5396 5396 5395 5394 5393 5393
5403 5403 5404 5404 5405 5405 5404 5404 5403 5403 5402 5402 5401 5400 5400 5399 5398 5398 5397 5397 5396 5395 5394 5393 5392 5391 5390 5390 5389 5389 5388 5388 5387 5387 5386 5386 5385 5385 5384 5384 5383 5383 5382
5392 5393 5393 5393 5393 5393 5393 5393 5392 5392 5391 5391 5390 5390 5389 5389 5388 5387 5386 5386 5385 5384 5383 5382 5381 5380 5379 5378 5377 5377 5376 5376 5375 5375 5374 5374 5374 5374 5374 5373 5373 5373 5372
5381 5382 5382 5382 5382 5382 5382 5382 5382 5381 5381 5380 5380 5379 5379 5378 5378 5377 5376 5375 5374 5373 5372 5371 5370 5369 5368 5367 5367 5366 5365 5365 5364 5364 5364 5364 5364 5364 5364 5364 5364 5364 5364